Showing default

COSMOS 2041, 20235

Orbit data source: Space-Track

COSMOS 2041, 20235 is a payload satellite owned by UNKS (CIS) in LEO that was launched on Thu, 14 Sep 1989 UTC via a TSIKLON-3 launch vehicle from the Plesetsk Missile And Space Complex (PKMTR). Payload-class satellites include a variety of spacecraft equipped with specific instruments for various scientific and technological missions. These include communications satellites like Starlink; space stations such as the ISS; scientific satellites like the Hubble; Earth observation satellites from companies like Planet Labs, Umbra, and HawkEye 360; GPS; miniature CubeSats for education and research; and military/defense satellites.

Loading next visibility...
Identifier
20235, 1989-074D
Orbit
LEO
Country
Flag of CISCIS
Related business
Manufacturer
NPO PM
Mission
Defense Communications
Bus & Motor
STRELA-3, Unknown motor
Mass
225 kg wet, 225 kg dry
Launch date (UTC)
1989-09-14 (37 years ago)
Launch vehicle
TSIKLON-3
Launch site
Plesetsk Missile And Space Complex (PKMTR)
Object type
Payload
Rocket body
Debris
Shape & HBR
Cyl + 1 Ant, 3.5 m
Radar Cross Section
1.583 m², Large (>1 m²)

Expand to show TLE details & history
Last TLE update: 13 hours ago

TLE from 13 hours ago
0 COSMOS 2041
1 20235U 89074D   26122.11388118  .00000015  00000-0  20711-4 0  9995
2 20235  82.5840 239.1531 0008437 194.0044 340.1574 12.64845447690687
Epoch: 2026-05-02T02:43Z
TLE epoch observation values (Epoch: 2026-05-02T02:43:59.333Z)
Latitude
5.74631°
Longitude
157.37267°
Altitude
1,399.006 km
Speed
7.164 km/s
True Right ascension
03h 53m 37s
True Declination
5° 42' 54"
Sunlit
Object was in daylight at epoch
Visualization orbit readout
Latitude
Unknown
Longitude
Unknown
Altitude
Unknown
Speed
Unknown
Apparent Right ascension
Unknown
Apparent Declination
Unknown
Sunlit
N/A
Visualization observer readout
Local Sidereal Time
23:22:51
Azimuth
Unknown
Elevation
Unknown
Doppler factor
Unknown
Orbital elements
Apogee altitude
1,406.888 km
Perigee altitude
1,393.763 km
Semi-major axis
7,778.462 km
Eccentricity
0.00084
Inclination
82.584°
RAAN
239.1531°
Arg. of periapsis
194.0044°
True anomaly
340.12455°
Mean anomaly
340.1574°
Eccentric anomaly
340.14098°
Mean motion
3.16375 °/min
Orbital period
113.79 mins
BSTAR
0.000020711
Loading maneuver chart data...
Computing Atmospheric mass density...
Loading historical data...
Loading historical data...
Loading historical data...
Loading historical data...
Loading historical data...
Loading historical data...
Loading historical data...

Documentation

Showing up to 5 results
|